Weather in Filonovskaya

Russia / Volgograd Oblast     50°34′54″N   42°43′51″E
temp.,
°C
wind,
m/s
gust,
m/s
humid.,
%
clouds,
%
prec.,
mm/h
press.,
hPa
HPBL,
m
3 march, wed
wed300:000wnw5998100 0.4 1009401
03:000nw4898100 0.5 1009406
06:00−1nw4109296 0.1 1009346
09:00−1nnw6109094 0.1 1011692
12:00+1nw698799 0.2 1013959
15:000nnw7107499 0.4 10151041
18:00−3nw5128440 0.0 1017565
21:00−4wnw5118331 0.0 1019593
4 march, thu
thu400:00−4w49870 0.0 1018295
03:00−3wsw5118627 0.0 1018384
06:00−2wsw7128893 0.0 1016753
09:00−1wsw7138497 0.1 1015874
12:00+2wsw8137245 0.0 1013808
15:00+4wsw8146331 0.0 1011984
18:00+2sw716690 0.0 1010511
21:00+2sw717740 0.0 1009586
5 march, fri
fri500:00+2sw7177743 0.0 1007589
03:00+3sw8178772 0.0 1006655
06:00+3sw81690100 0.1 1005623
09:00+3wsw81494100 0.4 1006686
12:00+3wsw81491100 0.5 1007774
15:00+4w61080100 0.6 10091039
18:00+1wnw3695100 0.1 1011222
21:000ese1199100 0.3 101238
6 march, sat
sat600:000ene4699100 2.3 1010254
03:00−1ne6997100 7.4 1009370
06:00−2nne61096100 1.5 1009438
09:00−3n6994100 2.1 1011552
12:00−2nnw578496 0.1 1014610
15:00−2n468360 0.1 1015660
18:00−5n238991 0.0 101632
21:00−7n128861 0.0 101721
7 march, sun
sun700:00−8nw01880 0.0 101721
03:00−8wsw11860 0.0 101721
06:00−8s11872 0.0 101821
09:00−4wsw369230 0.1 1019443
12:00−3w5782100 0.1 1018872
15:00−3wsw7117096 0.1 1015998
18:00−4sw6147199 0.0 1013569
21:00−3sw81767100 0.0 1011830